Regional Weather Roundup
Issued by NWS

Home | Current Version | Previous Version | Text Only | Print | Product List | Glossary On
Versions: 1 2 3 4 5 6 7 8 9 10 11 12 13 14 15 16 17 18 19 20 21 22 23 24 25 26 27 28 29 30 31 32 33 34 35 36 37 38 39 40 41 42 43 44 45 46 47 48 49 50
000
ASUS43 KDTX 271710
RWRMI
MICHIGAN HOURLY REGIONAL WEATHER ROUNDUP
NATIONAL WEATHER SERVICE DETROIT/PONTIAC MI
100 PM EDT TUE SEP 27 2016

NOTE: "FAIR" INDICATES FEW OR NO CLOUDS BELOW 12,000 FEET WITH NO
SIGNIFICANT WEATHER AND/OR OBSTRUCTION TO VISIBILITY.

MIZ047>049-052>055-059>063-066>070-074>076-081>083-271800-
SOUTHEAST LOWER MICHIGAN

CITY           SKY/WX    TMP DP  RH WIND       PRES   REMARKS
ADRIAN         FAIR      66  35  31 W16G29    29.79F
ALMA           CLOUDY    63  46  52 SW18G31   29.70S
ANN ARBOR      FAIR      67  39  35 SW16G32   29.75F
BAD AXE        PTSUNNY   61  43  51 SW12G23   29.69S
CARO           CLOUDY    62  47  59 W18G25    29.69S
DETROIT CITY   FAIR      66  38  35 W22G32    29.75F
DETROIT        FAIR      68  38  33 SW23G36   29.77F
FLINT          CLOUDY    62  44  51 W14G25    29.72S
GROSSE ILE     FAIR      68  36  31 SW20G30   29.76F
HILLSDALE      FAIR      64  32  29 W17G32    29.78F
HOWELL         PTSUNNY   64  46  52 W14G30    29.74F

CITY           SKY/WX    TMP DP  RH WIND       PRES   REMARKS
JACKSON        FAIR      63  46  54 W16       29.75F
LAMBERTVILLE   FAIR      69  35  29 W13G28    29.79F
LANSING        PTSUNNY   64  40  41 W25G36    29.73F
LAPEER         PTSUNNY   64  42  45 W13G22    29.72R
MASON          CLOUDY    64  43  45 W12G21    29.74F
MONROE         FAIR      69  37  30 W22       29.77F
MT. CLEMENS    MOSUNNY   67  40  36 SW14G28   29.72F
PONTIAC        PTSUNNY   65  42  43 SW14G28   29.73F
PORT HURON     FAIR      64  41  42 SW10G20   29.72F
TRI CITIES     CLOUDY    61  47  59 W21       29.69S
MIDLAND        CLOUDY    60  46  59 SW14G22   29.67S
TROY           FAIR      68  33  27 SW18G32   29.75F
SAGINAW HB     CLOUDY    61  46  59 SW14G22   29.68S
$$
MIZ043>046-050>051-056>058-064>065-071>073-077>080-271800-
SOUTHWEST LOWER MICHIGAN

CITY           SKY/WX    TMP DP  RH WIND       PRES   REMARKS
BATTLE CREEK   FAIR      66  41  40 W24G33    29.75F
BENTON HARBOR  FAIR      68  36  30 W26G36    29.77F
BIG RAPIDS     CLOUDY    57  48  70 W14       29.67S
COLDWATER      FAIR      66  32  28 W23G32    29.78F
FREMONT        CLOUDY    56  41  57 W12G17    29.70S
HOLLAND        PTSUNNY   63  44  50 W21G26    29.74F
GRAND RAPIDS   PTSUNNY   61  43  51 W26       29.72F
IONIA          CLOUDY    63  41  44 W16G30    29.70F
KALAMAZOO      FAIR      66  36  32 W23G35    29.77F
LUDINGTON      LGT RAIN  55  49  81 W8G16     29.67R
MARSHALL       FAIR      66  41  40 W22G30    29.75F
MOUNT PLEASANT PTSUNNY   60  47  61 SW9G18    29.68S
MUSKEGON       CLOUDY    58  45  62 W13G23    29.72S
SOUTH HAVEN    FAIR      66  43  43 W17G30    29.76S
$$
MIZ016>042-271800-
NORTHERN LOWER MICHIGAN

CITY           SKY/WX    TMP DP  RH WIND       PRES   REMARKS
ALPENA         LGT RAIN  60  45  57 SW12G20   29.61R
BEAVER ISLAND  CLOUDY    58  49  74 W16       29.55R
BELLAIRE       LGT RAIN  55  52  88 SW7       29.60F
CADILLAC       RAIN      51  48  91 W9        29.64S
CHARLEVOIX     LGT RAIN  55  52  89 W13G20    29.60S
FRANKFORT      CLOUDY    58  47  65 W14G20    29.62S
GAYLORD        LGT RAIN  53  48  83 SW10      29.60S
GRAYLING       CLOUDY    55  48  80 SW8G17    29.63S
HARBOR SPRINGS LGT RAIN  54  52  91 SW10G17   29.57S
HOUGHTON LAKE  CLOUDY    55  46  71 W13       29.65S
MANISTEE       LGT RAIN  55  49  80 W12G18    29.64S
OSCODA         CLOUDY    58  47  66 SW14      29.63F
PELLSTON       CLOUDY    56  51  84 W10       29.56F
ROGERS CITY    CLOUDY    58  48  71 SW9       29.60R
TRAVERSE CITY  CLOUDY    57  49  74 SW8G17    29.60S
$$
MIZ007>008-015-271800-
EASTERN UPPER MICHIGAN

CITY           SKY/WX    TMP DP  RH WIND       PRES   REMARKS
KINROSS        CLOUDY    59  49  69 W9        29.52S
MACKINAC ISLAN CLOUDY    56  50  79 W9G16     29.54S
NEWBERRY       LGT RAIN  53  52  96 SW9       29.52R
S. S. MARIE    CLOUDY    59  49  69 S8        29.51S
MUNISING         N/A     52  50  93 W7        29.52R
$$
MIZ004>006-011>014-085-271800-
CENTRAL UPPER MICHIGAN

CITY           SKY/WX    TMP DP  RH WIND       PRES   REMARKS
MANISTIQUE     RAIN      54  50  87 W7        29.54R
ESCANABA       LGT RAIN  52  48  86 W12       29.57R
MENOMINEE      CLOUDY    56  46  69 W9G17     29.60R
SAWYER-GWINN   LGT RAIN  50  46  87 W10       29.54R
$$
MIZ001>003-009>011-084-271800-
WESTERN UPPER MICHIGAN

CITY           SKY/WX    TMP DP  RH WIND       PRES   REMARKS
IRON MOUNTAIN  LGT RAIN  50  45  83 NW9G20    29.57S
HOUGHTON       CLOUDY    50  46  86 NW18      29.53R FOG
COPPER HARBOR    N/A     54  50  86 N20       29.50R
IRONWOOD       CLOUDY    50  47  89 NW15G25   29.63S
$$

ABBREVIATIONS USED IN REMARKS
   TC - TEMPERATURE IN CELSIUS
  WCI - WIND CHILL INDEX
   HX - HEAT INDEX
  VSB - VISIBILITY





USA.gov is the U.S. government's official web portal to all federal, state and local government web resources and services.